| time (UTC) | temp F | wind direction | speed MPH | gust MPH | rain 1hr in | rain 24hr in | rain mn in | humidity % | barometer mb |
| 20260902073834 | 75 | 97 | 3.0 | 6.0 | 0.00 | 0.02 | 0.02 | 92 | 1013.7 |
| 20260902073330 | 76 | 90 | 1.0 | 2.0 | 0.00 | 0.02 | 0.02 | 93 | 1013.8 |
| 20260902072826 | 76 | 90 | 0.0 | 2.0 | 0.00 | 0.02 | 0.02 | 92 | 1013.8 |
| 20260902072321 | 76 | 66 | 0.0 | 3.0 | 0.09 | 0.02 | 0.02 | 93 | 1013.9 |
| 20260902071818 | 77 | 354 | 3.0 | 3.0 | 0.12 | 0.02 | 0.02 | 92 | 1014.6 |
| 20260902071312 | 77 | 151 | 1.0 | 5.0 | 0.00 | 0.00 | 0.00 | 92 | 1014.6 |
| 20260902070809 | 76 | 214 | 3.0 | 5.0 | 0.00 | 0.00 | 0.00 | 93 | 1014.4 |
| 20260902070308 | 77 | 176 | 4.0 | 4.0 | 0.00 | 0.00 | 0.00 | 93 | 1014.1 |
| 20260902065807 | 77 | 198 | 5.0 | 5.0 | 0.00 | 0.00 | 0.00 | 93 | 1013.9 |
| 20260902065306 | 77 | 239 | 5.0 | 6.0 | 0.00 | 0.00 | 0.00 | 93 | 1014.3 |
| 20260902064758 | 78 | 279 | 0.0 | 2.0 | 0.00 | 0.00 | 0.00 | 92 | 1013.7 |
| 20260902064254 | 77 | 0 | 0.0 | 2.0 | 0.00 | 0.00 | 0.00 | 92 | 1013.3 |
| 20260902063749 | 78 | 0 | 0.0 | 2.0 | 0.00 | 0.00 | 0.00 | 92 | 1013.3 |
| 20260902063244 | 77 | 0 | 0.0 | 2.0 | 0.00 | 0.00 | 0.00 | 93 | 1013.3 |
| 20260902062743 | 77 | 0 | 0.0 | 3.0 | 0.00 | 0.00 | 0.00 | 93 | 1013.5 |
| 20260902062238 | 77 | 0 | 2.0 | 3.0 | 0.00 | 0.00 | 0.00 | 94 | 1013.4 |
| 20260902061737 | 77 | 343 | 2.0 | 3.0 | 0.00 | 0.00 | 0.00 | 95 | 1013.5 |
| 20260902061233 | 77 | 0 | 1.0 | 3.0 | 0.00 | 0.00 | 0.00 | 95 | 1013.5 |
| 20260902060730 | 77 | 340 | 1.0 | 2.0 | 0.00 | 0.00 | 0.00 | 95 | 1013.7 |
| 20260902060225 | 77 | 12 | 1.0 | 1.0 | 0.00 | 0.00 | 0.00 | 95 | 1013.9 |
| 20260902055720 | 77 | 0 | 0.0 | 0.0 | 0.00 | 0.00 | 0.00 | 95 | 1013.9 |
| 20260902055217 | 76 | 0 | 0.0 | 0.0 | 0.00 | 0.00 | 0.00 | 95 | 1013.9 |
| 20260902054712 | 77 | 209 | 0.0 | 2.0 | 0.00 | 0.00 | 0.00 | 95 | 1013.9 |
| 20260902054207 | 76 | 209 | 0.0 | 1.0 | 0.00 | 0.00 | 0.00 | 94 | 1013.8 |
| 20260902053703 | 77 | 295 | 0.0 | 2.0 | 0.00 | 0.00 | 0.00 | 95 | 1014.0 |
| 20260902053202 | 77 | 0 | 0.0 | 0.0 | 0.00 | 0.00 | 0.00 | 94 | 1013.8 |
| 20260902052701 | 76 | 0 | 0.0 | 0.0 | 0.00 | 0.00 | 0.00 | 94 | 1013.7 |
| 20260902052157 | 77 | 279 | 0.0 | 1.0 | 0.00 | 0.00 | 0.00 | 94 | 1013.8 |
| 20260902051655 | 77 | 0 | 0.0 | 0.0 | 0.00 | 0.00 | 0.00 | 94 | 1013.7 |
| 20260902051151 | 77 | 0 | 0.0 | 1.0 | 0.00 | 0.00 | 0.00 | 94 | 1013.6 |
| 20260902050645 | 77 | 331 | 0.0 | 2.0 | 0.00 | 0.00 | 0.00 | 94 | 1013.6 |
| 20260902050141 | 77 | 240 | 0.0 | 2.0 | 0.00 | 0.00 | 0.00 | 94 | 1013.5 |
| 20260902045635 | 77 | 352 | 0.0 | 0.0 | 0.00 | 0.00 | 0.00 | 94 | 1013.0 |
| 20260902045131 | 77 | 291 | 0.0 | 2.0 | 0.00 | 0.00 | 0.00 | 93 | 1013.5 |
| 20260902044626 | 77 | 0 | 0.0 | 1.0 | 0.00 | 0.00 | 0.00 | 93 | 1013.4 |
| 20260902044123 | 78 | 180 | 0.0 | 2.0 | 0.00 | 0.00 | 0.00 | 93 | 1013.4 |
| 20260902043617 | 78 | 222 | 3.0 | 3.0 | 0.00 | 0.00 | 0.00 | 93 | 1013.5 |
| 20260902043112 | 78 | 279 | 0.0 | 1.0 | 0.00 | 0.00 | 0.00 | 92 | 1013.6 |
| 20260902042612 | 78 | 212 | 0.0 | 4.0 | 0.00 | 0.00 | 0.00 | 92 | 1013.6 |
| 20260902042108 | 79 | 240 | 3.0 | 4.0 | 0.00 | 0.00 | 0.00 | 92 | 1013.7 |
| 20260902041607 | 79 | 257 | 2.0 | 4.0 | 0.00 | 0.00 | 0.00 | 91 | 1013.8 |
| 20260902041101 | 79 | 261 | 2.0 | 4.0 | 0.00 | 0.00 | 0.00 | 90 | 1013.6 |
| 20260902040555 | 79 | 286 | 4.0 | 4.0 | 0.00 | 0.00 | 0.00 | 90 | 1013.8 |
| 20260902040050 | 79 | 243 | 4.0 | 8.0 | 0.00 | 0.00 | 0.00 | 90 | 1013.8 |
| 20260902035549 | 79 | 238 | 4.0 | 7.0 | 0.00 | 0.00 | 0.00 | 90 | 1013.7 |
| 20260902035045 | 79 | 258 | 2.0 | 4.0 | 0.00 | 0.00 | 0.00 | 89 | 1013.8 |
| 20260902034544 | 80 | 254 | 5.0 | 7.0 | 0.00 | 0.00 | 0.00 | 89 | 1013.6 |
| 20260902034043 | 80 | 243 | 0.0 | 4.0 | 0.00 | 0.00 | 0.00 | 88 | 1013.7 |
| 20260902033542 | 79 | 276 | 3.0 | 7.0 | 0.00 | 0.00 | 0.00 | 88 | 1013.8 |
| 20260902033037 | 79 | 251 | 3.0 | 4.0 | 0.00 | 0.00 | 0.00 | 88 | 1013.4 |
| 20260902032536 | 79 | 296 | 3.0 | 4.0 | 0.00 | 0.00 | 0.00 | 88 | 1013.4 |
| 20260902032031 | 79 | 290 | 0.0 | 3.0 | 0.00 | 0.00 | 0.00 | 88 | 1013.3 |
| 20260902031520 | 80 | 325 | 0.0 | 4.0 | 0.00 | 0.00 | 0.00 | 87 | 1013.2 |
| 20260902031016 | 80 | 237 | 5.0 | 5.0 | 0.00 | 0.00 | 0.00 | 88 | 1013.3 |
| 20260902030511 | 80 | 246 | 2.0 | 3.0 | 0.00 | 0.00 | 0.00 | 88 | 1013.4 |
| 20260902030010 | 80 | 232 | 2.0 | 3.0 | 0.00 | 0.00 | 0.00 | 87 | 1013.3 |
| 20260902025505 | 80 | 231 | 0.0 | 3.0 | 0.00 | 0.00 | 0.00 | 86 | 1013.2 |
| 20260902025000 | 80 | 249 | 1.0 | 1.0 | 0.00 | 0.00 | 0.00 | 86 | 1013.0 |
| 20260902024455 | 81 | 254 | 0.0 | 4.0 | 0.00 | 0.00 | 0.00 | 85 | 1013.0 |
| 20260902023950 | 81 | 251 | 2.0 | 3.0 | 0.00 | 0.00 | 0.00 | 84 | 1012.9 |
| 20260902023447 | 81 | 225 | 2.0 | 3.0 | 0.00 | 0.00 | 0.00 | 84 | 1012.7 |
| 20260902022946 | 81 | 220 | 0.0 | 2.0 | 0.00 | 0.00 | 0.00 | 84 | 1012.7 |
| 20260902022441 | 81 | 229 | 3.0 | 3.0 | 0.00 | 0.00 | 0.00 | 84 | 1012.9 |
| 20260902021936 | 82 | 232 | 2.0 | 5.0 | 0.00 | 0.00 | 0.00 | 84 | 1012.9 |
| 20260902021431 | 82 | 231 | 4.0 | 7.0 | 0.00 | 0.00 | 0.00 | 83 | 1013.0 |
| 20260902020926 | 82 | 240 | 5.0 | 8.0 | 0.00 | 0.00 | 0.00 | 83 | 1013.1 |
| 20260902020423 | 82 | 235 | 5.0 | 8.0 | 0.00 | 0.00 | 0.00 | 83 | 1012.9 |
| 20260902015918 | 82 | 249 | 3.0 | 8.0 | 0.00 | 0.00 | 0.00 | 82 | 1013.1 |
| 20260902015414 | 82 | 260 | 4.0 | 8.0 | 0.00 | 0.00 | 0.00 | 82 | 1012.9 |
| 20260902014909 | 82 | 229 | 5.0 | 8.0 | 0.00 | 0.00 | 0.00 | 82 | 1012.9 |
| 20260902014406 | 83 | 235 | 5.0 | 9.0 | 0.00 | 0.00 | 0.00 | 82 | 1012.8 |
| 20260902013904 | 82 | 235 | 6.0 | 9.0 | 0.00 | 0.00 | 0.00 | 82 | 1012.9 |
| 20260902013400 | 83 | 244 | 7.0 | 7.0 | 0.00 | 0.00 | 0.00 | 81 | 1012.7 |
| 20260902012855 | 83 | 238 | 6.0 | 8.0 | 0.00 | 0.00 | 0.00 | 81 | 1012.7 |
| 20260902012351 | 82 | 240 | 5.0 | 6.0 | 0.00 | 0.00 | 0.00 | 82 | 1012.7 |
| 20260902011846 | 82 | 244 | 5.0 | 5.0 | 0.00 | 0.00 | 0.00 | 82 | 1012.7 |
| 20260902011341 | 83 | 234 | 3.0 | 5.0 | 0.00 | 0.00 | 0.00 | 82 | 1012.9 |
| 20260902010841 | 83 | 236 | 6.0 | 9.0 | 0.00 | 0.00 | 0.00 | 81 | 1012.8 |
| 20260902010335 | 83 | 240 | 6.0 | 7.0 | 0.00 | 0.00 | 0.00 | 81 | 1012.8 |
| 20260902005834 | 83 | 225 | 3.0 | 7.0 | 0.00 | 0.00 | 0.00 | 82 | 1012.6 |
| 20260902005329 | 83 | 231 | 5.0 | 7.0 | 0.00 | 0.00 | 0.00 | 82 | 1012.4 |
| 20260902004825 | 83 | 211 | 3.0 | 5.0 | 0.00 | 0.00 | 0.00 | 82 | 1012.5 |
| 20260902004319 | 83 | 204 | 2.0 | 6.0 | 0.00 | 0.00 | 0.00 | 82 | 1012.5 |
| 20260902003814 | 83 | 221 | 2.0 | 6.0 | 0.00 | 0.00 | 0.00 | 81 | 1012.5 |
| 20260902003309 | 83 | 233 | 3.0 | 8.0 | 0.00 | 0.00 | 0.00 | 80 | 1012.4 |
| 20260902002805 | 83 | 231 | 5.0 | 5.0 | 0.00 | 0.00 | 0.00 | 79 | 1012.4 |
| 20260902002306 | 84 | 250 | 3.0 | 4.0 | 0.00 | 0.00 | 0.00 | 78 | 1012.5 |
| 20260902001800 | 84 | 244 | 3.0 | 6.0 | 0.00 | 0.00 | 0.00 | 77 | 1012.4 |
| 20260902001255 | 84 | 253 | 3.0 | 5.0 | 0.00 | 0.00 | 0.00 | 76 | 1012.4 |
| 20260902000749 | 84 | 230 | 5.0 | 7.0 | 0.00 | 0.00 | 0.00 | 76 | 1012.3 |
| 20260902000245 | 84 | 220 | 2.0 | 6.0 | 0.00 | 0.00 | 0.00 | 76 | 1012.5 |
| 20260901235744 | 84 | 226 | 4.0 | 7.0 | 0.00 | 0.00 | 0.00 | 76 | 1012.1 |
| 20260901235240 | 84 | 228 | 4.0 | 6.0 | 0.00 | 0.00 | 0.00 | 77 | 1011.9 |
| 20260901234739 | 85 | 233 | 4.0 | 8.0 | 0.00 | 0.00 | 0.00 | 76 | 1012.3 |
| 20260901234234 | 85 | 226 | 5.0 | 6.0 | 0.00 | 0.00 | 0.00 | 77 | 1012.0 |
| 20260901233728 | 85 | 241 | 4.0 | 7.0 | 0.00 | 0.00 | 0.00 | 77 | 1012.1 |
| 20260901233225 | 86 | 247 | 4.0 | 9.0 | 0.00 | 0.00 | 0.00 | 75 | 1012.1 |
| 20260901232725 | 86 | 228 | 3.0 | 5.0 | 0.00 | 0.00 | 0.00 | 76 | 1012.3 |
| 20260901232220 | 86 | 230 | 7.0 | 8.0 | 0.00 | 0.00 | 0.00 | 75 | 1012.4 |
| 20260901231716 | 86 | 239 | 3.0 | 6.0 | 0.00 | 0.00 | 0.00 | 75 | 1012.5 |
| 20260901231212 | 87 | 232 | 5.0 | 9.0 | 0.00 | 0.00 | 0.00 | 75 | 1012.4 |
| 20260901230708 | 86 | 230 | 6.0 | 8.0 | 0.00 | 0.00 | 0.00 | 75 | 1012.6 |
| 20260901230207 | 86 | 222 | 9.0 | 10.0 | 0.00 | 0.00 | 0.00 | 75 | 1012.6 |
| 20260901225703 | 86 | 227 | 7.0 | 8.0 | 0.00 | 0.00 | 0.00 | 75 | 1012.5 |
| 20260901225157 | 87 | 197 | 3.0 | 12.0 | 0.00 | 0.00 | 0.00 | 74 | 1012.5 |
| 20260901224653 | 87 | 226 | 6.0 | 11.0 | 0.00 | 0.00 | 0.00 | 74 | 1012.4 |
| 20260901224149 | 87 | 226 | 9.0 | 12.0 | 0.00 | 0.00 | 0.00 | 73 | 1012.6 |
| 20260901223644 | 87 | 244 | 9.0 | 13.0 | 0.00 | 0.00 | 0.00 | 73 | 1012.5 |
| 20260901223139 | 87 | 249 | 4.0 | 10.0 | 0.00 | 0.00 | 0.00 | 73 | 1012.6 |
| 20260901222636 | 87 | 233 | 5.0 | 11.0 | 0.00 | 0.00 | 0.00 | 72 | 1012.5 |
| 20260901222132 | 87 | 227 | 6.0 | 10.0 | 0.00 | 0.00 | 0.00 | 70 | 1012.5 |
| 20260901221627 | 88 | 219 | 5.0 | 11.0 | 0.00 | 0.00 | 0.00 | 69 | 1012.3 |
| 20260901221123 | 90 | 224 | 8.0 | 10.0 | 0.00 | 0.00 | 0.00 | 66 | 1012.3 |
| 20260901220622 | 89 | 226 | 9.0 | 13.0 | 0.00 | 0.00 | 0.00 | 66 | 1012.4 |
| 20260901220121 | 89 | 245 | 5.0 | 10.0 | 0.00 | 0.00 | 0.00 | 67 | 1012.3 |
| 20260901215620 | 89 | 254 | 8.0 | 10.0 | 0.00 | 0.00 | 0.00 | 65 | 1012.4 |
| 20260901215114 | 90 | 258 | 7.0 | 13.0 | 0.00 | 0.00 | 0.00 | 63 | 1012.3 |
| 20260901214613 | 90 | 217 | 6.0 | 13.0 | 0.00 | 0.00 | 0.00 | 63 | 1012.2 |
| 20260901214113 | 90 | 243 | 8.0 | 11.0 | 0.00 | 0.00 | 0.00 | 63 | 1012.3 |
| 20260901213607 | 90 | 222 | 9.0 | 13.0 | 0.00 | 0.00 | 0.00 | 63 | 1012.6 |
| 20260901213101 | 90 | 255 | 6.0 | 9.0 | 0.00 | 0.00 | 0.00 | 64 | 1012.2 |
| 20260901212601 | 90 | 219 | 5.0 | 11.0 | 0.00 | 0.00 | 0.00 | 64 | 1012.5 |
| 20260901212058 | 90 | 260 | 5.0 | 11.0 | 0.00 | 0.00 | 0.00 | 65 | 1012.5 |
| 20260901211553 | 90 | 288 | 7.0 | 11.0 | 0.00 | 0.00 | 0.00 | 65 | 1012.7 |
| 20260901211049 | 90 | 230 | 4.0 | 11.0 | 0.00 | 0.00 | 0.00 | 66 | 1012.7 |
| 20260901210544 | 90 | 228 | 9.0 | 10.0 | 0.00 | 0.00 | 0.00 | 66 | 1012.7 |
| 20260901210041 | 89 | 232 | 7.0 | 10.0 | 0.00 | 0.00 | 0.00 | 69 | 1012.8 |
| 20260901205535 | 90 | 277 | 7.0 | 9.0 | 0.00 | 0.00 | 0.00 | 67 | 1012.7 |
| 20260901205030 | 89 | 246 | 5.0 | 11.0 | 0.00 | 0.00 | 0.00 | 66 | 1012.9 |
| 20260901204526 | 90 | 268 | 9.0 | 9.0 | 0.00 | 0.00 | 0.00 | 67 | 1012.8 |
| 20260901204021 | 89 | 244 | 10.0 | 13.0 | 0.00 | 0.00 | 0.00 | 68 | 1013.0 |
| 20260901203515 | 89 | 254 | 5.0 | 8.0 | 0.00 | 0.00 | 0.00 | 68 | 1012.8 |
| 20260901203010 | 89 | 232 | 9.0 | 10.0 | 0.00 | 0.00 | 0.00 | 68 | 1012.8 |
| 20260901202505 | 89 | 245 | 9.0 | 10.0 | 0.00 | 0.00 | 0.00 | 67 | 1013.1 |
| 20260901202001 | 89 | 297 | 3.0 | 7.0 | 0.00 | 0.00 | 0.00 | 68 | 1012.9 |
| 20260901201455 | 90 | 312 | 6.0 | 7.0 | 0.00 | 0.00 | 0.00 | 67 | 1012.9 |
| 20260901200950 | 89 | 234 | 5.0 | 9.0 | 0.00 | 0.00 | 0.00 | 66 | 1013.0 |
| 20260901200445 | 89 | 243 | 9.0 | 9.0 | 0.00 | 0.00 | 0.00 | 67 | 1012.9 |
| 20260901195944 | 89 | 249 | 7.0 | 10.0 | 0.00 | 0.00 | 0.00 | 66 | 1013.0 |
| 20260901195443 | 88 | 237 | 11.0 | 11.0 | 0.00 | 0.00 | 0.00 | 66 | 1013.1 |
| 20260901194937 | 89 | 223 | 6.0 | 10.0 | 0.00 | 0.00 | 0.00 | 65 | 1013.1 |
| 20260901194432 | 89 | 246 | 10.0 | 11.0 | 0.00 | 0.00 | 0.00 | 68 | 1013.1 |
| 20260901193929 | 89 | 241 | 8.0 | 10.0 | 0.00 | 0.00 | 0.00 | 67 | 1013.2 |
| 20260901193428 | 88 | 246 | 6.0 | 9.0 | 0.00 | 0.00 | 0.00 | 65 | 1013.4 |
| 20260901192927 | 89 | 288 | 5.0 | 9.0 | 0.00 | 0.00 | 0.00 | 66 | 1013.2 |
| 20260901192424 | 89 | 275 | 4.0 | 9.0 | 0.00 | 0.00 | 0.00 | 65 | 1013.2 |
| 20260901191920 | 89 | 248 | 8.0 | 8.0 | 0.00 | 0.00 | 0.00 | 65 | 1013.3 |
| 20260901191415 | 88 | 322 | 2.0 | 7.0 | 0.00 | 0.00 | 0.00 | 66 | 1013.4 |
| 20260901190911 | 89 | 255 | 5.0 | 8.0 | 0.00 | 0.00 | 0.00 | 67 | 1013.3 |
| 20260901190411 | 88 | 230 | 3.0 | 10.0 | 0.00 | 0.00 | 0.00 | 67 | 1013.5 |
| 20260901185909 | 88 | 239 | 3.0 | 7.0 | 0.00 | 0.00 | 0.00 | 64 | 1013.7 |
| 20260901185409 | 88 | 345 | 5.0 | 5.0 | 0.00 | 0.00 | 0.00 | 68 | 1013.5 |
| 20260901184903 | 88 | 230 | 3.0 | 7.0 | 0.00 | 0.00 | 0.00 | 68 | 1013.4 |
| 20260901184359 | 88 | 220 | 7.0 | 10.0 | 0.00 | 0.00 | 0.00 | 69 | 1013.4 |
| 20260901183854 | 88 | 289 | 3.0 | 6.0 | 0.00 | 0.00 | 0.00 | 70 | 1013.5 |
| 20260901183353 | 88 | 270 | 1.0 | 7.0 | 0.00 | 0.00 | 0.00 | 72 | 1013.2 |
| 20260901182849 | 87 | 296 | 4.0 | 5.0 | 0.00 | 0.00 | 0.00 | 71 | 1013.6 |
| 20260901182350 | 86 | 276 | 3.0 | 5.0 | 0.00 | 0.00 | 0.00 | 73 | 1013.4 |
| 20260901181844 | 87 | 180 | 0.0 | 6.0 | 0.00 | 0.00 | 0.00 | 73 | 1013.3 |
| 20260901181339 | 87 | 262 | 5.0 | 5.0 | 0.00 | 0.00 | 0.00 | 74 | 1013.6 |
| 20260901180838 | 87 | 246 | 8.0 | 8.0 | 0.00 | 0.00 | 0.00 | 73 | 1013.6 |
| 20260901180337 | 87 | 241 | 5.0 | 7.0 | 0.00 | 0.00 | 0.00 | 72 | 1013.6 |
| 20260901175831 | 87 | 236 | 5.0 | 6.0 | 0.00 | 0.00 | 0.00 | 74 | 1013.6 |
| 20260901175325 | 87 | 248 | 5.0 | 6.0 | 0.00 | 0.00 | 0.00 | 73 | 1013.7 |
| 20260901174820 | 86 | 260 | 5.0 | 11.0 | 0.00 | 0.00 | 0.00 | 76 | 1013.8 |
| 20260901174316 | 86 | 286 | 4.0 | 8.0 | 0.00 | 0.00 | 0.00 | 76 | 1013.9 |
| 20260901173811 | 86 | 244 | 4.0 | 11.0 | 0.00 | 0.00 | 0.00 | 78 | 1013.8 |
| 20260901173306 | 86 | 251 | 5.0 | 11.0 | 0.00 | 0.00 | 0.00 | 78 | 1013.7 |
| 20260901172803 | 86 | 258 | 3.0 | 9.0 | 0.00 | 0.00 | 0.00 | 78 | 1013.7 |
| 20260901172304 | 86 | 220 | 3.0 | 5.0 | 0.00 | 0.00 | 0.00 | 78 | 1013.8 |
| 20260901171759 | 86 | 244 | 3.0 | 7.0 | 0.00 | 0.00 | 0.00 | 78 | 1013.9 |
| 20260901171259 | 85 | 248 | 5.0 | 8.0 | 0.00 | 0.00 | 0.00 | 78 | 1014.0 |
| 20260901170758 | 86 | 310 | 6.0 | 6.0 | 0.00 | 0.00 | 0.00 | 78 | 1014.1 |
| 20260901170253 | 86 | 229 | 2.0 | 5.0 | 0.00 | 0.00 | 0.00 | 79 | 1014.3 |
| 20260901165752 | 85 | 239 | 5.0 | 7.0 | 0.00 | 0.00 | 0.00 | 78 | 1014.3 |
| 20260901165247 | 86 | 225 | 3.0 | 6.0 | 0.00 | 0.00 | 0.00 | 80 | 1014.3 |
| 20260901164743 | 85 | 243 | 0.0 | 4.0 | 0.00 | 0.00 | 0.00 | 80 | 1014.3 |
| 20260901164238 | 85 | 319 | 2.0 | 3.0 | 0.00 | 0.00 | 0.00 | 79 | 1014.0 |
| 20260901163734 | 85 | 246 | 4.0 | 5.0 | 0.00 | 0.00 | 0.00 | 80 | 1014.1 |
| 20260901163233 | 84 | 288 | 3.0 | 8.0 | 0.00 | 0.00 | 0.00 | 81 | 1014.3 |
| 20260901162728 | 84 | 265 | 2.0 | 6.0 | 0.00 | 0.00 | 0.00 | 81 | 1014.3 |
| 20260901162227 | 84 | 313 | 3.0 | 6.0 | 0.00 | 0.00 | 0.00 | 82 | 1014.6 |
| 20260901161726 | 84 | 235 | 5.0 | 6.0 | 0.00 | 0.00 | 0.00 | 82 | 1014.4 |
| 20260901161221 | 84 | 201 | 4.0 | 5.0 | 0.00 | 0.00 | 0.00 | 84 | 1014.5 |
| 20260901160717 | 84 | 331 | 5.0 | 8.0 | 0.00 | 0.00 | 0.00 | 85 | 1014.6 |
| 20260901160213 | 84 | 248 | 2.0 | 5.0 | 0.00 | 0.00 | 0.00 | 86 | 1014.7 |
| 20260901155711 | 83 | 282 | 5.0 | 6.0 | 0.00 | 0.00 | 0.00 | 86 | 1014.6 |
| 20260901155207 | 83 | 297 | 3.0 | 5.0 | 0.00 | 0.00 | 0.00 | 85 | 1014.5 |
| 20260901154702 | 82 | 344 | 4.0 | 7.0 | 0.00 | 0.00 | 0.00 | 86 | 1014.4 |
| 20260901154156 | 82 | 244 | 3.0 | 6.0 | 0.00 | 0.00 | 0.00 | 86 | 1014.4 |
| 20260901153652 | 82 | 255 | 2.0 | 4.0 | 0.00 | 0.00 | 0.00 | 87 | 1014.6 |
| 20260901153151 | 82 | 324 | 3.0 | 4.0 | 0.00 | 0.00 | 0.00 | 88 | 1014.4 |
| 20260901152646 | 82 | 240 | 3.0 | 5.0 | 0.00 | 0.00 | 0.00 | 88 | 1014.7 |
| 20260901152144 | 82 | 294 | 0.0 | 3.0 | 0.00 | 0.00 | 0.00 | 88 | 1014.4 |
| 20260901151641 | 81 | 265 | 4.0 | 5.0 | 0.00 | 0.00 | 0.00 | 90 | 1014.6 |
| 20260901151140 | 81 | 296 | 3.0 | 4.0 | 0.00 | 0.00 | 0.00 | 90 | 1014.3 |
| 20260901150639 | 81 | 275 | 2.0 | 4.0 | 0.00 | 0.00 | 0.00 | 91 | 1014.5 |
| 20260901150132 | 80 | 226 | 4.0 | 5.0 | 0.00 | 0.00 | 0.00 | 91 | 1014.4 |
| 20260901145630 | 80 | 212 | 2.0 | 5.0 | 0.00 | 0.00 | 0.00 | 92 | 1014.5 |
| 20260901145130 | 80 | 299 | 4.0 | 5.0 | 0.00 | 0.00 | 0.00 | 92 | 1014.4 |
| 20260901144626 | 80 | 327 | 3.0 | 4.0 | 0.00 | 0.00 | 0.00 | 92 | 1014.4 |
| 20260901144121 | 79 | 295 | 4.0 | 6.0 | 0.00 | 0.00 | 0.00 | 93 | 1014.4 |
| 20260901143616 | 79 | 329 | 4.0 | 5.0 | 0.00 | 0.00 | 0.00 | 93 | 1014.1 |
| 20260901143112 | 79 | 7 | 5.0 | 5.0 | 0.00 | 0.00 | 0.00 | 94 | 1014.3 |
| 20260901142608 | 79 | 266 | 2.0 | 4.0 | 0.00 | 0.00 | 0.00 | 94 | 1014.1 |
| 20260901142107 | 79 | 270 | 3.0 | 4.0 | 0.00 | 0.00 | 0.00 | 94 | 1014.3 |
| 20260901141602 | 78 | 337 | 1.0 | 4.0 | 0.00 | 0.00 | 0.00 | 94 | 1013.9 |
| 20260901141057 | 79 | 318 | 3.0 | 4.0 | 0.00 | 0.00 | 0.00 | 95 | 1014.1 |
| 20260901140555 | 78 | 270 | 2.0 | 4.0 | 0.00 | 0.00 | 0.00 | 94 | 1014.1 |
| 20260901140050 | 78 | 330 | 2.0 | 3.0 | 0.00 | 0.00 | 0.00 | 94 | 1014.4 |
| 20260901135549 | 78 | 227 | 3.0 | 4.0 | 0.00 | 0.00 | 0.00 | 94 | 1014.3 |
| 20260901135045 | 77 | 18 | 1.0 | 2.0 | 0.00 | 0.00 | 0.00 | 95 | 1014.3 |
| 20260901134541 | 77 | 342 | 2.0 | 2.0 | 0.00 | 0.00 | 0.00 | 95 | 1014.0 |
| 20260901134041 | 77 | 7 | 1.0 | 2.0 | 0.00 | 0.00 | 0.00 | 95 | 1014.1 |
| 20260901133540 | 77 | 354 | 1.0 | 3.0 | 0.00 | 0.00 | 0.00 | 95 | 1014.4 |
| 20260901133038 | 77 | 357 | 2.0 | 3.0 | 0.00 | 0.00 | 0.00 | 95 | 1014.3 |
| 20260901132533 | 77 | 5 | 0.0 | 3.0 | 0.00 | 0.00 | 0.00 | 95 | 1014.3 |
| 20260901132032 | 76 | 354 | 1.0 | 3.0 | 0.00 | 0.00 | 0.00 | 96 | 1014.3 |
| 20260901131527 | 76 | 277 | 1.0 | 3.0 | 0.00 | 0.00 | 0.00 | 96 | 1014.3 |
| 20260901131023 | 76 | 221 | 2.0 | 2.0 | 0.00 | 0.00 | 0.00 | 96 | 1014.3 |
| 20260901130522 | 76 | 0 | 0.0 | 1.0 | 0.00 | 0.00 | 0.00 | 96 | 1014.5 |
| 20260901130021 | 75 | 200 | 0.0 | 2.0 | 0.00 | 0.00 | 0.00 | 96 | 1014.5 |
| 20260901125520 | 75 | 240 | 1.0 | 3.0 | 0.00 | 0.00 | 0.00 | 97 | 1014.4 |
| 20260901125015 | 75 | 315 | 0.0 | 3.0 | 0.00 | 0.00 | 0.00 | 97 | 1014.6 |
| 20260901124510 | 75 | 315 | 0.0 | 3.0 | 0.00 | 0.00 | 0.00 | 97 | 1014.6 |
| 20260901124009 | 75 | 251 | 1.0 | 2.0 | 0.00 | 0.00 | 0.00 | 97 | 1014.3 |
| 20260901123505 | 75 | 243 | 0.0 | 2.0 | 0.00 | 0.00 | 0.00 | 97 | 1014.1 |
| 20260901123004 | 74 | 261 | 0.0 | 2.0 | 0.00 | 0.00 | 0.00 | 97 | 1014.4 |
| 20260901122457 | 74 | 287 | 0.0 | 2.0 | 0.00 | 0.00 | 0.00 | 97 | 1014.3 |
| 20260901121956 | 73 | 270 | 0.0 | 0.0 | 0.00 | 0.00 | 0.00 | 97 | 1014.0 |
| 20260901121451 | 73 | 255 | 0.0 | 2.0 | 0.00 | 0.00 | 0.00 | 97 | 1013.9 |
| 20260901120946 | 73 | 342 | 1.0 | 2.0 | 0.00 | 0.00 | 0.00 | 97 | 1014.3 |
| 20260901120441 | 73 | 292 | 2.0 | 3.0 | 0.00 | 0.00 | 0.00 | 97 | 1014.1 |
| 20260901115937 | 73 | 262 | 0.0 | 2.0 | 0.00 | 0.00 | 0.00 | 97 | 1014.0 |
| 20260901115437 | 73 | 281 | 2.0 | 3.0 | 0.00 | 0.00 | 0.00 | 97 | 1013.7 |
| 20260901114934 | 72 | 292 | 2.0 | 2.0 | 0.00 | 0.00 | 0.00 | 97 | 1013.9 |
| 20260901114429 | 72 | 270 | 0.0 | 2.0 | 0.00 | 0.00 | 0.00 | 97 | 1013.6 |
| 20260901113927 | 73 | 309 | 2.0 | 3.0 | 0.00 | 0.00 | 0.00 | 97 | 1013.8 |
| 20260901113427 | 73 | 0 | 2.0 | 3.0 | 0.00 | 0.00 | 0.00 | 97 | 1013.8 |
| 20260901112922 | 72 | 292 | 3.0 | 3.0 | 0.00 | 0.00 | 0.00 | 97 | 1013.7 |
| 20260901112417 | 72 | 300 | 0.0 | 2.0 | 0.00 | 0.00 | 0.00 | 97 | 1013.4 |
| 20260901111912 | 72 | 243 | 1.0 | 2.0 | 0.00 | 0.00 | 0.00 | 97 | 1013.5 |
| 20260901111410 | 72 | 261 | 0.0 | 0.0 | 0.00 | 0.00 | 0.00 | 97 | 1013.3 |
| 20260901110909 | 71 | 261 | 0.0 | 0.0 | 0.00 | 0.00 | 0.00 | 97 | 1013.5 |
| 20260901110405 | 72 | 261 | 0.0 | 0.0 | 0.00 | 0.00 | 0.00 | 97 | 1013.4 |
| 20260901105901 | 72 | 243 | 0.0 | 2.0 | 0.00 | 0.00 | 0.00 | 97 | 1013.2 |
| 20260901105356 | 72 | 212 | 2.0 | 2.0 | 0.00 | 0.00 | 0.00 | 96 | 1013.4 |
| 20260901104852 | 72 | 246 | 1.0 | 1.0 | 0.00 | 0.00 | 0.00 | 96 | 1013.2 |
| 20260901104347 | 73 | 251 | 1.0 | 1.0 | 0.00 | 0.00 | 0.00 | 96 | 1013.2 |
| 20260901103842 | 73 | 240 | 2.0 | 2.0 | 0.00 | 0.00 | 0.00 | 96 | 1013.2 |
| 20260901103337 | 73 | 270 | 0.0 | 1.0 | 0.00 | 0.00 | 0.00 | 96 | 1013.3 |
| 20260901102832 | 73 | 286 | 0.0 | 1.0 | 0.00 | 0.00 | 0.00 | 96 | 1013.2 |
| 20260901102332 | 73 | 270 | 0.0 | 0.0 | 0.00 | 0.00 | 0.00 | 96 | 1012.8 |
| 20260901101827 | 73 | 270 | 0.0 | 0.0 | 0.00 | 0.00 | 0.00 | 96 | 1013.2 |
| 20260901101326 | 73 | 270 | 0.0 | 1.0 | 0.00 | 0.00 | 0.00 | 96 | 1012.8 |
| 20260901100821 | 73 | 263 | 0.0 | 1.0 | 0.00 | 0.00 | 0.00 | 96 | 1013.0 |
| 20260901100316 | 73 | 262 | 0.0 | 2.0 | 0.00 | 0.00 | 0.00 | 96 | 1013.2 |
| 20260901095815 | 73 | 264 | 1.0 | 3.0 | 0.00 | 0.00 | 0.00 | 96 | 1013.1 |
| 20260901095312 | 74 | 248 | 0.0 | 4.0 | 0.00 | 0.00 | 0.00 | 96 | 1013.0 |
| 20260901094807 | 74 | 297 | 3.0 | 4.0 | 0.00 | 0.00 | 0.00 | 96 | 1013.2 |
| 20260901094302 | 73 | 299 | 2.0 | 3.0 | 0.00 | 0.00 | 0.00 | 96 | 1013.4 |
| 20260901093756 | 74 | 279 | 2.0 | 3.0 | 0.00 | 0.00 | 0.00 | 96 | 1013.3 |
| 20260901093255 | 74 | 265 | 2.0 | 3.0 | 0.00 | 0.00 | 0.00 | 96 | 1013.2 |
| 20260901092751 | 74 | 279 | 2.0 | 5.0 | 0.00 | 0.00 | 0.00 | 96 | 1013.5 |
| 20260901092248 | 74 | 310 | 3.0 | 3.0 | 0.00 | 0.00 | 0.00 | 96 | 1013.4 |
| 20260901091742 | 74 | 273 | 3.0 | 3.0 | 0.00 | 0.00 | 0.00 | 96 | 1013.5 |
| 20260901091237 | 74 | 297 | 1.0 | 4.0 | 0.00 | 0.00 | 0.00 | 96 | 1013.2 |
| 20260901090732 | 74 | 309 | 3.0 | 3.0 | 0.00 | 0.00 | 0.00 | 96 | 1013.1 |
| 20260901090227 | 74 | 292 | 2.0 | 3.0 | 0.00 | 0.00 | 0.00 | 96 | 1013.1 |
| 20260901085724 | 75 | 299 | 3.0 | 3.0 | 0.00 | 0.00 | 0.00 | 96 | 1013.0 |
| 20260901085218 | 74 | 263 | 3.0 | 3.0 | 0.00 | 0.00 | 0.00 | 96 | 1013.3 |
| 20260901084715 | 75 | 246 | 2.0 | 3.0 | 0.00 | 0.00 | 0.00 | 96 | 1013.2 |
| 20260901084211 | 75 | 270 | 0.0 | 3.0 | 0.00 | 0.00 | 0.00 | 96 | 1013.1 |
| 20260901083705 | 75 | 255 | 2.0 | 3.0 | 0.00 | 0.00 | 0.00 | 96 | 1012.8 |
| 20260901083204 | 75 | 270 | 2.0 | 3.0 | 0.00 | 0.00 | 0.00 | 96 | 1013.0 |
| 20260901082703 | 75 | 263 | 3.0 | 5.0 | 0.00 | 0.00 | 0.00 | 96 | 1013.0 |
| 20260901082159 | 75 | 253 | 2.0 | 6.0 | 0.00 | 0.00 | 0.00 | 96 | 1013.0 |
| 20260901081655 | 75 | 300 | 0.0 | 3.0 | 0.00 | 0.00 | 0.00 | 96 | 1013.0 |
| 20260901081154 | 75 | 253 | 4.0 | 7.0 | 0.00 | 0.00 | 0.00 | 96 | 1012.8 |
| 20260901080649 | 75 | 255 | 2.0 | 5.0 | 0.00 | 0.00 | 0.00 | 96 | 1013.1 |
| 20260901080148 | 75 | 310 | 3.0 | 4.0 | 0.00 | 0.00 | 0.00 | 96 | 1012.9 |
| 20260901075643 | 75 | 235 | 2.0 | 6.0 | 0.00 | 0.00 | 0.00 | 96 | 1012.9 |
| 20260901075143 | 75 | 253 | 2.0 | 6.0 | 0.00 | 0.00 | 0.00 | 96 | 1012.8 |
| 20260901074642 | 75 | 282 | 2.0 | 4.0 | 0.00 | 0.00 | 0.00 | 96 | 1013.0 |
| 20260901074138 | 75 | 255 | 0.0 | 4.0 | 0.00 | 0.00 | 0.00 | 96 | 1012.9 |